Vertical_Velocity
0 -0 2 -2 -3 -6 -3 -0 -4 6 2 -10 -4 0 -5 -22 16 2 -11 -4 -5 -4 15 -1 -27 11 5 -2 -1 5 5 5 0 -4 -5 7 -8 3 -5 1 2 0 -1 2
-3 -2 -2 -2 -2 -4 -0 -1 -7 1 -5 -1 11 5 5 7 -1 -3 -8 -8 -8 -11 -5 2 3 12 -1 -4 11 3 4 2 1 -3 5 10 4 4 9 3 3 -2 -1 0
0 3 -0 -3 2 -2 -2 -0 -1 -4 3 -3 4 -4 -5 -6 -11 -2 1 2 2 -1 -7 -1 1 -5 6 -6 3 12 10 3 2 1 -0 5 6 1 -8 -10 -4 -3 -2 2
-1 -3 -2 -1 -4 1 -0 0 -5 -1 2 1 7 -20 5 -6 -2 -4 -6 -2 -10 -9 -9 -4 1 -6 4 -2 2 13 5 13 3 -1 -8 -3 -4 -5 6 0 1 1 0 -1
3 1 -2 -0 0 3 -4 -3 0 2 1 6 -2 9 16 -7 -13 -16 -6 -6 -0 -1 -1 1 -1 1 3 4 -1 11 7 11 -1 -8 2 4 19 4 2 7 11 2 1 -0
-1 -0 -3 0 0 -2 -5 -5 -6 -0 2 6 2 1 15 -11 -7 -4 -3 -0 -1 1 2 3 4 6 6 1 3 4 8 6 3 -5 13 7 10 33 -10 1 -0 11 -2 2
1 -0 2 -1 -2 -8 -5 -1 -3 4 9 2 5 -2 6 0 -0 -3 -5 -1 -3 1 4 5 8 7 5 13 7 -1 9 10 -1 10 17 -10 -0 -77 1 -2 -2 7 -6 -27
1 12 3 0 -0 -6 -5 -2 6 2 3 -4 -1 4 4 -4 -5 0 2 2 1 -1 6 3 6 5 3 12 12 8 14 5 8 10 21 9 17 4 3 -18 -9 -6 -3 -1
-3 -5 2 -3 -1 -2 13 5 3 1 -4 10 2 -0 -0 -0 -3 0 -3 1 3 4 9 9 13 7 5 11 -3 -14 2 1 11 4 14 -7 11 7 -9 8 2 0 8 4
-1 -5 -1 1 -3 2 -7 2 8 4 2 -1 3 1 1 -10 -5 -0 -2 -3 2 3 8 8 13 4 6 11 -2 -17 -19 7 10 -3 -5 31 -8 3 7 -5 1 -6 2 3
-0 -3 -1 -1 7 -4 16 1 -1 -1 0 3 1 8 1 -2 -0 -1 1 0 2 -3 -3 13 5 9 8 2 -11 42 11 24 1 6 2 -5 8 -3 -7 -2 1 -0 6 2
-3 3 -2 -3 -0 -3 1 14 3 12 -3 4 -1 7 -1 -0 0 0 3 3 4 2 4 10 8 3 6 6 12 -7 36 -5 15 11 4 1 1 0 2 4 1 3 3 -2
2 3 -3 14 6 12 -7 -7 -3 1 8 -1 6 7 -3 2 1 -2 0 3 3 6 3 7 11 5 6 1 -2 -0 -9 -17 -14 -8 -14 -4 2 -9 0 -1 -0 4 6 1
-1 -1 -3 3 -2 -2 -3 0 -2 11 6 1 4 -3 -1 0 -1 1 1 0 3 3 3 4 1 7 6 6 3 3 8 18 16 10 10 8 3 1 0 -1 -1 1 -1 0
0 -3 0 -1 -2 9 -1 -4 3 -0 3 5 -0 -2 -0 -2 -2 1 1 1 3 -1 1 7 4 -0 7 13 9 -3 -2 -1 -0 -3 -4 -2 -3 -1 -0 1 0 -3 1 1
-0 3 -1 -7 1 6 1 -3 -1 5 2 -1 -4 0 -2 -2 -1 1 2 2 1 0 2 -2 -7 1 5 3 4 8 6 1 -6 -2 -1 1 -4 -6 0 1 2 1 3 2
1 -2 -1 3 -2 6 7 -4 -5 -1 -2 6 5 0 -1 0 0 -1 -3 -0 -1 2 3 1 0 4 5 3 -0 -6 -5 -10 1 5 6 2 2 4 2 1 4 1 1 -2
1 1 -3 2 1 7 -3 -1 -3 -3 -3 -1 -1 -1 1 -0 -1 1 -1 -1 -0 -0 -0 2 2 1 1 2 1 -3 2 3 -3 2 -7 -3 -1 -5 1 -1 -2 -2 1 0
2 -1 1 1 8 0 2 -3 -2 -1 -2 -3 -4 0 1 0 1 1 1 -0 -1 -1 -1 -2 -2 -3 -5 1 0 1 3 -3 -9 -7 6 2 2 1 -2 1 1 2 -1 0
-1 -2 -1 1 5 -1 -1 -0 -1 0 3 0 -0 0 1 1 4 1 0 1 -0 -0 -0 0 -0 -2 -2 -1 0 -0 -1 3 4 2 1 0 -3 -4 -3 -1 0 -0 0 0
2 3 1 3 3 -1 -2 0 1 5 0 -1 -0 2 -1 0 1 0 0 -2 -2 -2 -0 -0 -1 -0 1 3 3 1 0 4 1 -0 -4 -4 -5 -5 -1 -0 -2 -3 -3 -4
1 1 1 -1 2 6 -3 5 3 -1 -1 -1 -3 -1 -1 -1 0 -1 -0 -1 -2 -1 -1 -2 -3 -3 0 -2 -1 -4 -3 -2 -6 -6 -4 -3 -2 -0 0 -0 -2 -1 1 -2
6 -3 4 -4 -2 -3 1 4 1 -1 3 -1 -4 -2 -1 -0 -1 -0 -1 -0 -2 0 -2 -2 -1 -2 -3 -3 -2 -3 -3 -0 -0 -2 2 1 0 1 -3 -2 2 4 1 -1
-1 -1 0 -1 -1 -1 3 3 3 1 1 -2 -1 -0 -0 -1 0 1 2 1 -0 -1 -2 -2 1 2 0 3 0 2 -2 -0 1 2 3 1 1 -3 1 -2 -2 -4 -3 -6
-3 -0 1 1 -0 1 2 2 2 1 -2 -1 -1 -0 -1 -0 0 1 1 -0 0 0 -1 1 -0 -2 -1 2 -1 -2 -2 2 2 -2 -2 -6 -5 -4 -2 -3 -5 -4 -3 -3
-1 -1 -1 2 0 -1 1 0 1 1 -0 -0 0 -0 -1 -1 -0 1 0 -2 -2 -2 -1 -3 -2 -3 -4 -1 -5 -4 -4 1 -2 -6 -6 -4 -3 -5 -4 -6 -9 -1 -1 -0
Height
3083 3084 3084 3082 3079 3077 3072 3069 3065 3065 3060 3055 3050 3045 3043 3033 3030 3030 3024 3020 3015 3010 3010 3008 3006 3008 3007 3016 3023 3033 3039 3043 3049 3057 3064 3071 3079 3086 3089 3092 3097 3101 3105 3108
3081 3079 3078 3077 3075 3072 3069 3065 3062 3056 3056 3052 3040 3037 3037 3034 3027 3020 3015 3010 3005 2999 2997 2998 2997 2997 2990 2992 3005 3016 3027 3033 3038 3047 3057 3067 3074 3079 3083 3086 3090 3095 3099 3102
3077 3076 3073 3073 3072 3068 3066 3063 3059 3055 3050 3046 3038 3030 3031 3030 3021 3014 3008 3002 2996 2990 2985 2983 2982 2982 2977 2984 2988 2999 3013 3022 3029 3038 3048 3056 3064 3069 3074 3078 3083 3089 3093 3096
3072 3070 3070 3068 3067 3066 3062 3060 3056 3052 3048 3043 3042 3025 3027 3021 3018 3010 3002 2993 2986 2977 2972 2972 2972 2971 2969 2972 2977 2986 2997 3009 3019 3027 3037 3046 3054 3060 3067 3071 3077 3082 3087 3091
3072 3067 3065 3064 3064 3061 3059 3056 3052 3049 3045 3043 3035 3032 3018 3014 3007 3002 2994 2986 2979 2972 2967 2963 2963 2962 2961 2964 2968 2975 2986 2999 3009 3018 3028 3038 3044 3054 3062 3067 3069 3073 3081 3085
3065 3063 3062 3062 3060 3057 3055 3051 3048 3045 3043 3036 3029 3030 3015 3012 3008 2999 2991 2983 2975 2970 2963 2959 2956 2955 2955 2957 2962 2970 2978 2991 3001 3010 3018 3023 3026 3031 3055 3062 3067 3066 3073 3078
3062 3059 3058 3058 3058 3055 3053 3053 3043 3039 3033 3022 3024 3024 3020 3015 3010 3002 2991 2981 2973 2967 2961 2956 2952 2952 2952 2954 2958 2966 2972 2984 2994 3002 3009 3017 3016 3024 3049 3057 3061 3061 3066 3072
3061 3057 3056 3054 3054 3055 3053 3053 3049 3043 3028 3024 3022 3020 3021 3017 3010 3002 2993 2982 2973 2967 2958 2953 2948 2951 2954 2955 2960 2966 2970 2979 2988 2996 3002 3012 3021 3034 3042 3047 3050 3053 3059 3064
3059 3054 3052 3051 3050 3052 3050 3049 3047 3043 3032 3029 3019 3021 3019 3017 3009 3001 2992 2983 2973 2966 2956 2951 2949 2952 2954 2957 2962 2966 2973 2980 2986 2992 3000 3009 3016 3025 3034 3038 3042 3048 3051 3055
3054 3051 3048 3048 3047 3047 3047 3046 3044 3039 3030 3018 3015 3019 3021 3013 3007 3000 2993 2984 2976 2969 2961 2955 2949 2955 2957 2959 2963 2968 2978 2978 2985 2992 3003 2999 3012 3017 3023 3029 3036 3039 3042 3045
3050 3050 3049 3045 3045 3045 3044 3042 3040 3037 3032 3022 3013 3020 3020 3015 3009 3002 2995 2989 2981 2974 2967 2959 2958 2958 2960 2962 2967 2965 2967 2975 2981 2989 2992 3001 3009 3014 3020 3025 3027 3030 3033 3036
3047 3047 3045 3043 3042 3040 3040 3038 3034 3030 3024 3022 3020 3023 3020 3017 3011 3004 2998 2992 2986 2979 2973 2965 2963 2961 2962 2964 2965 2971 2970 2976 2984 2988 2993 2998 3003 3008 3012 3016 3019 3022 3025 3028
3044 3044 3042 3038 3040 3038 3035 3032 3028 3024 3022 3020 3019 3023 3020 3018 3013 3006 3000 2995 2989 2984 2978 2972 2967 2965 2966 2967 2969 2970 2974 2983 2986 2989 2994 2998 3000 3004 3006 3009 3012 3014 3017 3018
3041 3042 3042 3042 3042 3038 3033 3027 3022 3016 3016 3018 3020 3022 3021 3018 3014 3009 3003 2998 2992 2988 2984 2978 2972 2969 2969 2969 2971 2974 2977 2979 2982 2986 2989 2991 2994 2997 3000 3003 3006 3007 3008 3010
3039 3038 3038 3038 3037 3035 3031 3027 3022 3017 3017 3018 3022 3021 3020 3018 3015 3011 3006 3002 2997 2992 2989 2984 2979 2977 2974 2972 2972 2975 2977 2979 2980 2982 2985 2987 2990 2991 2994 2995 2997 2998 3000 3001
3036 3036 3035 3035 3034 3033 3031 3027 3025 3023 3021 3021 3023 3022 3020 3019 3017 3014 3009 3005 3002 2998 2995 2992 2988 2984 2981 2978 2976 2978 2978 2980 2982 2982 2983 2984 2985 2987 2989 2988 2989 2990 2991 2991
3035 3034 3034 3031 3031 3031 3030 3027 3026 3025 3024 3025 3025 3023 3021 3020 3018 3015 3012 3009 3006 3003 3000 2998 2995 2992 2989 2986 2984 2984 2982 2983 2985 2984 2984 2984 2984 2983 2983 2983 2983 2984 2984 2985
3032 3032 3033 3030 3030 3025 3024 3025 3026 3026 3026 3025 3024 3023 3021 3021 3019 3017 3014 3012 3010 3007 3005 3002 3000 2998 2996 2993 2992 2990 2989 2989 2989 2988 2987 2986 2985 2984 2983 2982 2981 2981 2981 2980
3029 3029 3031 3028 3023 3025 3024 3024 3025 3025 3026 3024 3023 3022 3022 3020 3020 3019 3017 3014 3012 3010 3007 3005 3003 3003 3001 3000 2998 2997 2996 2994 2993 2992 2990 2988 2986 2985 2984 2983 2981 2979 2978 2977
3026 3026 3029 3026 3022 3019 3020 3020 3022 3023 3025 3023 3022 3022 3021 3021 3021 3020 3018 3016 3014 3012 3011 3010 3007 3005 3003 3002 3000 2999 2998 2997 2995 2992 2990 2988 2988 2987 2986 2985 2983 2981 2979 2976
3024 3024 3024 3022 3020 3017 3017 3018 3020 3022 3026 3021 3021 3021 3021 3021 3022 3020 3019 3018 3016 3015 3014 3012 3010 3008 3006 3004 3003 3002 3000 2999 2998 2996 2993 2992 2990 2988 2986 2984 2981 2980 2977 2975
3020 3020 3020 3019 3017 3017 3015 3016 3019 3019 3018 3020 3021 3021 3022 3022 3021 3020 3019 3018 3017 3015 3014 3012 3011 3009 3007 3006 3004 3002 3001 2999 2998 2996 2994 2991 2989 2987 2984 2982 2980 2977 2975 2973
3018 3017 3017 3016 3014 3012 3011 3012 3014 3016 3018 3019 3021 3021 3021 3021 3021 3021 3020 3019 3018 3017 3016 3013 3011 3010 3008 3006 3004 3002 3000 2998 2996 2993 2991 2989 2987 2986 2983 2981 2979 2976 2973 2971
3012 3012 3012 3013 3012 3011 3011 3011 3013 3015 3018 3019 3020 3020 3021 3021 3020 3020 3020 3019 3018 3017 3015 3013 3011 3008 3007 3005 3004 3002 3001 2998 2996 2994 2991 2988 2986 2983 2980 2978 2975 2973 2970 2968
3010 3011 3011 3010 3010 3011 3011 3012 3013 3015 3018 3019 3020 3021 3021 3020 3020 3019 3018 3018 3017 3015 3014 3012 3010 3008 3007 3005 3002 3000 2998 2996 2993 2990 2987 2985 2983 2981 2978 2976 2973 2970 2968 2965
3008 3008 3010 3009 3009 3010 3011 3012 3013 3015 3017 3018 3019 3020 3020 3020 3019 3017 3017 3016 3015 3014 3012 3011 3009 3007 3005 3002 2999 2997 2994 2991 2988 2985 2982 2979 2977 2974 2971 2968 2965 2964 2961 2958